Location: Unspecified
(0.0000°N, 0.0000°E)
Time: 23:57:11
(UTC+00:00)

N. Korean satellite - Pass Details

Date: 15 July 2019
Orbit: 456 x 506 km, 97.2° (Epoch: 18 November)

Event Time Altitude Azimuth Distance (km) Brightness Sun altitude
Rises 05:14:46 0° 25° (NNE) 2,588 11.0 -11.9°
Reaches altitude 10° 05:16:57 10° 34° (NNE) 1,711 10.2 -11.4°
Maximum altitude 05:20:21 36° 101° (E) 823 8.3 -10.6°
Drops below altitude 10° 05:23:47 10° 168° (SSE) 1,722 9.2 -9.8°
Sets 05:25:59 0° 177° (S) 2,608 10.1 -9.3°
